Weather in Novoselye

Russia / Yaroslavl Oblast     56°42′51″N   38°42′38″E
temp.,
°C
wind,
m/s
gust,
m/s
humid.,
%
clouds,
%
prec.,
mm/h
press.,
hPa
HPBL,
m
27 january, thu
thu2700:00−18w11100100 0.1 101710
03:00−20wsw11100100 0.1 10189
06:00−18sw11100100 0.1 101714
09:00−14s2499100 0.1 101659
12:00−10ssw3792100 0.0 1015295
15:00−9s4992100 0.0 1014408
18:00−10s4119399 0.0 1013397
21:00−11s5149384 0.0 1011391
28 january, fri
fri2800:00−12s5159150 0.0 1010376
03:00−12s51590100 0.0 1009389
06:00−12sse5159187 0.0 1007398
09:00−12sse51592100 0.0 1006396
12:00−10sse61590100 0.0 1005436
15:00−8sse51490100 0.1 1004503
18:00−8sse51391100 0.1 1004531
21:00−8sse51292100 0.3 1004471
29 january, sat
sat2900:00−8sse41094100 0.5 1004401
03:00−9sse3995100 0.9 1004327
06:00−9se3795100 0.5 1003258
09:00−8se2696100 0.9 1003207
12:00−6sse239399 0.1 1003216
15:00−5se1293100 0.3 1002212
18:00−8sse119888 0.1 100212
21:00−10ssw119876 0.2 100213
30 january, sun
sun3000:00−10sw229987 0.1 100035
03:00−10sw249878 0.2 998105
06:00−14s389898 0.0 995123
09:00−11sse51493100 0.1 992351
12:00−7sse61690100 0.0 988565
15:00−6sse71490100 0.3 986895
18:00−5sse6149099 0.1 985707
21:00−5sse51292100 0.3 984552
31 january, mon
mon3100:00−6se5129391 0.1 985362
03:00−6se41193100 0.2 984343
06:00−4ese41094100 0.6 984396
09:00−3se41096100 0.9 984470
12:00−1sse4896100 0.6 985612
15:00−2ssw3696100 1.1 986510
18:00−6sse2497100 0.3 98967
21:00−7sse2397100 0.4 99058